User: anonymous   Login
Location: Unspecified
(0.0000°N, 0.0000°E)
Time: 07:59:25
(UTC+02:00)
Language:

Iridium 4 Rocket - Orbit

View from above orbital plane
View from above orbital plane
View from above satellite
View from above satellite

Ground track
Ground track

The orbit data is extracted from the following two-line orbital elements,

1 24797U 97020F   16179.40405400  .00000225  00000-0  42109-4 0  9997
2 24797  86.8975 123.3283 0227843  60.4291  54.1300 14.43876797  6740
Epoch (UTC): 27 June 2016 09:41:50
Eccentricity: 0.0227843
inclination: 86.8975°
perigee height: 583 km
apogee height: 908 km
right ascension of ascending node: 123.3283°
argument of perigee: 60.4291°
revolutions per day: 14.43876797
mean anomaly at epoch: 54.1300°
orbit number at epoch: 674

The dashed part of the orbit path shows where the satellite is in the earth's shadow,  

DLR